Weather History for Missoula, MT

Change the Weather History Date:

Tuesday, February 11, 2014

  Actual Average Record
Temperature  
Mean Temperature 32 °F 29 °F  
Max Temperature 42 °F 37 °F 60 °F (1921)
Min Temperature 21 °F 21 °F -24 °F (1905)
Degree Days  
Heating Degree Days 33 36  
Month to date heating degree days 590 403  
Since 1 July heating degree days 4849 4792  
Cooling Degree Days 0 0  
Month to date cooling degree days 0 0  
Year to date cooling degree days 0 0  
Moisture  
Dew Point 23 °F    
Average Humidity 66    
Maximum Humidity 92    
Minimum Humidity 39    
Precipitation  
Precipitation 0.06 in 0.03 in 0.73 in (1897)
Month to date precipitation 0.48 0.27  
Year to date precipitation 1.36 1.12  
Snow  
Snow 0.60 in - - ()
Month to date snowfall 10.2  
Year to date snowfall 16.7  
Since 1 July snowfall 30.6  
Snow Depth 8.00 in    
Sea Level Pressure  
Sea Level Pressure 30.03 in    
Wind  
Wind Speed 7 mph (WNW)    
Max Wind Speed 26 mph    
Max Gust Speed 34 mph    
Visibility 6 miles    
Events Fog , Rain , Snow    
T = Trace of Precipitation, MM = Missing Value Source: NWS Daily Summary

Daily Weather History Graph

Daily Weather History Graph

Search for Another Location

Airport:

Trip Planner

Search our weather history database for the weather conditions in past years. The results will help you decide how hot, cold, wet, or windy it might be!

Date:

Astronomy

Feb. 11, 2014 Rise Set
Actual Time 7:46 AM MST 5:55 PM MST
Civil Twilight 7:15 AM MST 6:26 PM MST
Nautical Twilight 6:39 AM MST 7:02 PM MST
Astronomical Twilight 6:04 AM MST 7:37 PM MST
Moon 3:14 PM MST (2/11) 5:32 AM MST (2/11)
Length of Visible Light 11h 11m
Length of Day
10h 08m
Waxing Gibbous, 91% of the Moon is Illuminated
Feb 11
Waxing Gibbous
Feb 14
Full
Feb 22
Last Quarter
Mar 1
New
Mar 8
First Quarter

Hourly Weather History & Observations

Time (MST) Temp. Windchill Dew Point Humidity Pressure Visibility Wind Dir Wind Speed Gust Speed Precip Events Conditions
12:13 AM 23.0 °F 18.4 °F 19.9 °F 88% 30.00 in 7.0 mi SW 3.5 mph - N/A   Mostly Cloudy
12:21 AM 23.0 °F 18.4 °F 19.9 °F 88% 30.00 in 1.8 mi ENE 3.5 mph - 0.00 in Snow Light Snow
12:34 AM 23.0 °F 14.7 °F 21.0 °F 92% 29.98 in 3.0 mi East 6.9 mph - 0.01 in Snow Light Snow
12:48 AM 21.2 °F 13.6 °F 21.2 °F 100% 29.97 in 7.0 mi SSW 5.8 mph - 0.01 in   Overcast
12:53 AM 21.9 °F 11.0 °F 19.9 °F 92% 30.10 in 6.0 mi WSW 10.4 mph - 0.01 in   Overcast
1:53 AM 24.1 °F 18.2 °F 21.0 °F 88% 30.08 in 7.0 mi NW 4.6 mph - N/A   Overcast
2:20 AM 25.0 °F 20.7 °F 21.9 °F 88% 29.96 in 5.0 mi ENE 3.5 mph - 0.00 in Snow Light Snow
2:53 AM 24.1 °F - 21.9 °F 91% 30.08 in 4.0 mi Calm Calm - 0.00 in Snow Light Snow
3:53 AM 24.1 °F 17.0 °F 21.9 °F 91% 30.05 in 5.0 mi NW 5.8 mph - 0.00 in   Overcast
4:53 AM 24.1 °F - 21.9 °F 91% 30.04 in 5.0 mi Calm Calm - N/A   Overcast
5:41 AM 24.1 °F - 21.9 °F 91% 29.91 in 2.0 mi Calm Calm - 0.00 in Snow Light Snow
5:48 AM 24.8 °F 20.5 °F 21.2 °F 86% 29.91 in 3.0 mi ENE 3.5 mph - 0.00 in Snow Light Snow
5:53 AM 25.0 °F 19.3 °F 21.9 °F 88% 30.02 in 3.0 mi ENE 4.6 mph - 0.00 in Snow Light Snow
6:53 AM 26.1 °F 21.9 °F 24.1 °F 92% 29.99 in 4.0 mi WNW 3.5 mph - 0.01 in   Overcast
7:20 AM 27.0 °F 21.6 °F 25.0 °F 92% 29.87 in 4.0 mi NNW 4.6 mph - 0.00 in   Overcast
7:46 AM 26.1 °F 18.4 °F 25.0 °F 96% 29.87 in 2.5 mi WNW 6.9 mph - 0.00 in Rain Light Freezing Rain
7:53 AM 27.0 °F 20.5 °F 25.0 °F 92% 29.99 in 2.5 mi WNW 5.8 mph - 0.00 in Rain Light Freezing Rain
8:12 AM 28.0 °F 20.8 °F 27.0 °F 96% 29.88 in 1.8 mi West 6.9 mph - 0.01 in Rain Light Freezing Rain
8:26 AM 27.0 °F 18.7 °F 27.0 °F 100% 29.89 in 1.5 mi West 8.1 mph - 0.01 in Snow Light Snow
8:36 AM 28.0 °F 20.8 °F 27.0 °F 96% 29.89 in 1.0 mi West 6.9 mph - 0.02 in Snow Light Snow
8:53 AM 28.9 °F 23.9 °F 28.0 °F 96% 30.00 in 1.0 mi West 4.6 mph - 0.03 in Snow Light Snow
9:24 AM 28.9 °F 19.8 °F 28.0 °F 96% 29.92 in 0.8 mi WNW 10.4 mph - 0.00 in Snow Light Snow
9:32 AM 32.0 °F 23.6 °F 30.9 °F 96% 29.93 in 0.5 mi NW 10.4 mph - 0.01 in Fog , Snow Light Snow
9:39 AM 32.0 °F 23.0 °F 30.9 °F 96% 29.93 in 1.0 mi NW 11.5 mph - 0.01 in Snow Light Snow
9:43 AM 32.0 °F 22.5 °F 30.9 °F 96% 29.93 in 3.0 mi NW 12.7 mph - 0.01 in Snow Light Snow
9:53 AM 33.1 °F 23.4 °F 30.9 °F 92% 30.04 in 10.0 mi NNW 13.8 mph - 0.01 in   Overcast
10:53 AM 37.0 °F 28.9 °F 25.0 °F 62% 30.05 in 10.0 mi NW 12.7 mph - N/A   Partly Cloudy
11:47 AM 39.2 °F - 24.8 °F 56% 29.98 in 10.0 mi North - - N/A   Mostly Cloudy
11:53 AM 39.0 °F 34.0 °F 24.1 °F 55% 30.08 in 10.0 mi NNW 6.9 mph - N/A   Scattered Clouds
12:53 PM 39.0 °F 31.0 °F 25.0 °F 57% 30.09 in 10.0 mi WNW 13.8 mph - N/A   Overcast
1:53 PM 39.9 °F 31.4 °F 21.9 °F 49% 30.10 in 10.0 mi West 16.1 mph - N/A   Mostly Cloudy
2:53 PM 42.1 °F 35.2 °F 19.0 °F 40% 30.12 in 10.0 mi West 12.7 mph - N/A   Overcast
3:53 PM 41.0 °F - 19.0 °F 41% 30.14 in 10.0 mi North - - N/A   Overcast
4:53 PM 39.0 °F 33.4 °F 19.9 °F 46% 30.17 in 10.0 mi SW 8.1 mph - N/A   Scattered Clouds
5:53 PM 36.0 °F 29.0 °F 19.9 °F 52% 30.19 in 10.0 mi West 9.2 mph - N/A   Clear
6:53 PM 37.0 °F 32.4 °F 19.0 °F 48% 30.19 in 10.0 mi NNW 5.8 mph - N/A   Clear
7:53 PM 30.0 °F 26.5 °F 19.9 °F 66% 30.19 in 10.0 mi Variable 3.5 mph - N/A   Clear
8:53 PM 28.9 °F - 19.9 °F 69% 30.17 in 10.0 mi North - - N/A   Clear
9:53 PM 30.0 °F - 19.9 °F 66% 30.16 in 10.0 mi Calm Calm - N/A   Clear
10:53 PM 26.1 °F 21.9 °F 19.0 °F 75% 30.12 in 10.0 mi SW 3.5 mph - N/A   Clear
11:53 PM 28.0 °F 20.0 °F 21.0 °F 75% 30.09 in 10.0 mi ESE 8.1 mph - N/A   Overcast